COSMOS 2251 DEB

Satellite information

Favourite Embed

Satellite Type and Status

DEBRISIN ORBIT

Key statistics

Satellite COSMOS 2251 DEB at a glance.

Uptime

11710

Days in orbit

Revolutions

≈ 15.0

Per day

Orbit

LEO

Low Earth Orbit

Inclination

74.0

Latest

Satellite identification and parameters

Extended collection of information and parameters for COSMOS 2251 DEB.

Object identification

Identified? True

Debris? True

Object name: COSMOS 2251 DEB

International designator: 1993-036AL

Object number (NORAD): 33795

Object ID (CCSDS): 33795

Country: COMMONWEALTH OF INDEPENDENT STATES (CIS)

Current information (Y/N): Y

RCS size: SMALL

Orbital parameters

Period: 96.152 minutes

Inclination: 74.035 deg

SMA: 6952.381 km

Apoapsis: 605.989 km

Periapsis: 542.503 km

RAAN: 37.9768 deg

Eccentricy: 0.0045658

Argument of periapsis: 165.922 deg

Mean anomaly: 262.0179 deg

Mean motion: 14.97622627 rev/day

Mean motion (dot): 0.00009251 rev/day2

B* drag term: 0.0007767 1/REarth

Two-line elements (TLE)

Creation date: July 8, 2025, 2:27 a.m.

Reference frame: TEME

Reference center: EARTH

Epoch: July 7, 2025, 10:43 p.m. UTC

TLE line 0: 0 COSMOS 2251 DEB

TLE line 1: 1 33795U 93036AL 25188.94681921 .00009251 00000-0 77670-3 0 9999

TLE line 2: 2 33795 74.0350 37.9768 0045658 165.9220 262.0179 14.97622627876544

Live tracking on map

Real-time ground track for satellite COSMOS 2251 DEB.

In-orbit conjunctions

A list of the most updated potential collisions computed for object COSMOS 2251 DEB.

Target Orbit TCA Probability of collision Miss distance Type
NOAA 16 DEB SSO 2024-09-25 03:07:22 0.0004188448 202.0 (m) DEBRIS
OKEAN 4 LEO 2024-08-01 17:37:08 0.0003171861 940.0 (m) PAYLOAD

Associated space launch

Military communications satellite. Destroyed in a collision with Iridium 33.

COSMOS 2251 DEB was lifted into orbit during the mission ‘Kosmos-3M | Strela-2M 51’, on board a Kosmos-3M space rocket.

The launch took place on June 16, 1993, 4:17 a.m. from 132/1 (132L).

For more information about the launch, click the button.

Launch to space Kosmos-3M | Strela-2M 51
Kosmos-3M | Strela-2M 51

Agency: N/A

Status: Launch Successful

Launch date: June 16, 1993, 4:17 a.m. UTC

Rocket: Kosmos-3M

Launch pad: 132/1 (132L)

Location: Plesetsk Cosmodrome, Russian Federation

...

Latest news about this satellite

There are no fresh news available about this satellite. Check back as we update our databases every day.


Newsletter sign-up

Weekly statistics, charts and insights to help you stay on top of the space industry.